| time (UTC) | temp C | wind direction | speed KPH | gust KPH | rain 1hr cm | rain 24hr cm | rain mn cm | humidity % | barometer mb |
| 20260506183014 | 18 | 105 | 0.0 | 12.9 | 0.00 | 0.00 | 0.00 | 81 | 1006.8 |
| 20260506182531 | 18 | 98 | 1.6 | 12.9 | 0.00 | 0.00 | 0.00 | 81 | 1006.8 |
| 20260506182048 | 18 | 179 | 1.6 | 29.0 | 0.00 | 0.00 | 0.00 | 80 | 1006.7 |
| 20260506181549 | 19 | 80 | 4.8 | 29.0 | 0.00 | 0.00 | 0.00 | 78 | 1006.7 |
| 20260506181049 | 19 | 157 | 0.0 | 16.1 | 0.00 | 0.00 | 0.00 | 78 | 1006.7 |
| 20260506180502 | 19 | 139 | 4.8 | 17.7 | 0.00 | 0.00 | 0.00 | 77 | 1006.7 |
| 20260506180018 | 19 | 173 | 3.2 | 17.7 | 0.00 | 0.00 | 0.00 | 77 | 1006.8 |
| 20260506175536 | 19 | 117 | 0.0 | 14.5 | 0.00 | 0.00 | 0.00 | 77 | 1006.8 |
| 20260506175051 | 19 | 183 | 4.8 | 32.2 | 0.00 | 0.00 | 0.00 | 77 | 1006.9 |
| 20260506174604 | 19 | 121 | 1.6 | 27.4 | 0.00 | 0.00 | 0.00 | 76 | 1007.0 |
| 20260506174002 | 19 | 130 | 3.2 | 32.2 | 0.00 | 0.00 | 0.00 | 76 | 1007.1 |
| 20260506173520 | 20 | 107 | 6.4 | 22.5 | 0.00 | 0.00 | 0.00 | 75 | 1007.2 |
| 20260506173035 | 20 | 125 | 3.2 | 12.9 | 0.00 | 0.00 | 0.00 | 76 | 1006.9 |
| 20260506172546 | 20 | 104 | 3.2 | 27.4 | 0.00 | 0.00 | 0.00 | 75 | 1006.9 |
| 20260506172104 | 20 | 168 | 8.0 | 25.7 | 0.00 | 0.00 | 0.00 | 75 | 1007.1 |
| 20260506171603 | 20 | 107 | 3.2 | 24.1 | 0.00 | 0.00 | 0.00 | 75 | 1007.1 |
| 20260506171001 | 20 | 142 | 0.0 | 16.1 | 0.00 | 0.00 | 0.00 | 76 | 1007.2 |
| 20260506170517 | 20 | 104 | 3.2 | 16.1 | 0.00 | 0.00 | 0.00 | 76 | 1007.2 |
| 20260506170030 | 20 | 117 | 4.8 | 16.1 | 0.00 | 0.00 | 0.00 | 75 | 1007.4 |
| 20260506165548 | 20 | 179 | 3.2 | 17.7 | 0.00 | 0.00 | 0.00 | 76 | 1007.2 |
| 20260506165103 | 20 | 163 | 3.2 | 24.1 | 0.00 | 0.00 | 0.00 | 77 | 1007.1 |
| 20260506164604 | 20 | 179 | 6.4 | 24.1 | 0.00 | 0.00 | 0.00 | 77 | 1007.3 |
| 20260506164103 | 20 | 123 | 1.6 | 12.9 | 0.00 | 0.00 | 0.00 | 77 | 1007.5 |
| 20260506163520 | 20 | 103 | 1.6 | 16.1 | 0.00 | 0.00 | 0.00 | 73 | 1007.5 |
| 20260506163041 | 20 | 180 | 3.2 | 17.7 | 0.00 | 0.00 | 0.00 | 72 | 1007.7 |
| 20260506162546 | 20 | 123 | 4.8 | 17.7 | 0.00 | 0.00 | 0.00 | 72 | 1007.8 |
| 20260506162059 | 20 | 223 | 4.8 | 9.7 | 0.00 | 0.00 | 0.00 | 72 | 1008.1 |
| 20260506161604 | 20 | 230 | 0.0 | 12.9 | 0.00 | 0.00 | 0.00 | 72 | 1008.2 |
| 20260506161011 | 20 | 111 | 0.0 | 16.1 | 0.00 | 0.00 | 0.00 | 72 | 1008.4 |
| 20260506160532 | 20 | 157 | 1.6 | 16.1 | 0.00 | 0.00 | 0.00 | 71 | 1008.4 |
| 20260506160043 | 20 | 220 | 4.8 | 16.1 | 0.00 | 0.00 | 0.00 | 70 | 1008.5 |
| 20260506155600 | 20 | 176 | 1.6 | 22.5 | 0.00 | 0.00 | 0.00 | 71 | 1008.3 |
| 20260506155058 | 20 | 159 | 0.0 | 22.5 | 0.00 | 0.00 | 0.00 | 70 | 1008.4 |
| 20260506154607 | 20 | 103 | 0.0 | 14.5 | 0.00 | 0.00 | 0.00 | 71 | 1008.4 |
| 20260506154017 | 20 | 154 | 1.6 | 17.7 | 0.00 | 0.00 | 0.00 | 70 | 1008.4 |
| 20260506153525 | 20 | 169 | 1.6 | 14.5 | 0.00 | 0.00 | 0.00 | 69 | 1008.3 |
| 20260506153042 | 20 | 96 | 1.6 | 9.7 | 0.00 | 0.00 | 0.00 | 69 | 1008.3 |
| 20260506152556 | 20 | 155 | 1.6 | 29.0 | 0.00 | 0.00 | 0.00 | 68 | 1008.4 |
| 20260506152058 | 20 | 204 | 4.8 | 29.0 | 0.00 | 0.00 | 0.00 | 69 | 1008.4 |
| 20260506151601 | 20 | 169 | 1.6 | 22.5 | 0.00 | 0.00 | 0.00 | 68 | 1008.5 |
| 20260506151012 | 21 | 209 | 0.0 | 22.5 | 0.00 | 0.00 | 0.00 | 68 | 1008.4 |
| 20260506150528 | 20 | 208 | 1.6 | 22.5 | 0.00 | 0.00 | 0.00 | 68 | 1008.5 |
| 20260506150044 | 21 | 204 | 3.2 | 19.3 | 0.00 | 0.00 | 0.00 | 67 | 1008.4 |
| 20260506145547 | 20 | 136 | 1.6 | 16.1 | 0.00 | 0.00 | 0.00 | 67 | 1008.5 |
| 20260506145105 | 20 | 193 | 1.6 | 16.1 | 0.00 | 0.00 | 0.00 | 68 | 1008.4 |
| 20260506144602 | 20 | 165 | 1.6 | 14.5 | 0.00 | 0.00 | 0.00 | 68 | 1008.5 |
| 20260506144103 | 20 | 212 | 1.6 | 16.1 | 0.00 | 0.00 | 0.00 | 67 | 1008.6 |
| 20260506143516 | 20 | 194 | 0.0 | 19.3 | 0.00 | 0.00 | 0.00 | 67 | 1008.6 |
| 20260506143030 | 20 | 113 | 4.8 | 19.3 | 0.00 | 0.00 | 0.00 | 67 | 1008.6 |
| 20260506142545 | 21 | 111 | 4.8 | 14.5 | 0.00 | 0.00 | 0.00 | 67 | 1008.6 |
| 20260506142100 | 21 | 220 | 3.2 | 16.1 | 0.00 | 0.00 | 0.00 | 66 | 1008.5 |
| 20260506141602 | 21 | 165 | 1.6 | 22.5 | 0.00 | 0.00 | 0.00 | 67 | 1008.5 |
| 20260506141103 | 21 | 150 | 6.4 | 22.5 | 0.00 | 0.00 | 0.00 | 66 | 1008.6 |
| 20260506140520 | 21 | 184 | 3.2 | 16.1 | 0.00 | 0.00 | 0.00 | 66 | 1008.5 |
| 20260506140037 | 21 | 150 | 0.0 | 16.1 | 0.00 | 0.00 | 0.00 | 67 | 1008.3 |
| 20260506135544 | 20 | 221 | 0.0 | 20.9 | 0.00 | 0.00 | 0.00 | 67 | 1008.2 |
| 20260506135059 | 20 | 212 | 4.8 | 20.9 | 0.00 | 0.00 | 0.00 | 67 | 1008.2 |
| 20260506134601 | 20 | 132 | 3.2 | 14.5 | 0.00 | 0.00 | 0.00 | 67 | 1008.3 |
| 20260506134013 | 20 | 106 | 1.6 | 19.3 | 0.00 | 0.00 | 0.00 | 67 | 1008.3 |
| 20260506133531 | 20 | 202 | 3.2 | 29.0 | 0.00 | 0.00 | 0.00 | 67 | 1008.2 |
| 20260506133045 | 20 | 117 | 4.8 | 29.0 | 0.00 | 0.00 | 0.00 | 67 | 1008.2 |
| 20260506132546 | 21 | 160 | 1.6 | 22.5 | 0.00 | 0.00 | 0.00 | 67 | 1008.3 |
| 20260506132049 | 21 | 154 | 3.2 | 16.1 | 0.00 | 0.00 | 0.00 | 67 | 1008.3 |
| 20260506131549 | 21 | 145 | 0.0 | 30.6 | 0.00 | 0.00 | 0.00 | 68 | 1008.5 |
| 20260506131102 | 21 | 177 | 3.2 | 25.7 | 0.00 | 0.00 | 0.00 | 68 | 1008.7 |
| 20260506130518 | 21 | 120 | 6.4 | 25.7 | 0.00 | 0.00 | 0.00 | 67 | 1008.6 |
| 20260506130028 | 20 | 142 | 3.2 | 20.9 | 0.00 | 0.00 | 0.00 | 69 | 1008.7 |
| 20260506125525 | 20 | 165 | 4.8 | 22.5 | 0.00 | 0.00 | 0.00 | 69 | 1008.7 |
| 20260506125040 | 20 | 88 | 1.6 | 16.1 | 0.00 | 0.00 | 0.00 | 70 | 1008.8 |
| 20260506124559 | 20 | 159 | 0.0 | 11.3 | 0.00 | 0.00 | 0.00 | 70 | 1008.7 |
| 20260506124009 | 20 | 109 | 1.6 | 24.1 | 0.00 | 0.00 | 0.00 | 72 | 1008.7 |
| 20260506123522 | 20 | 178 | 1.6 | 12.9 | 0.00 | 0.00 | 0.00 | 72 | 1008.5 |
| 20260506123022 | 20 | 109 | 0.0 | 17.7 | 0.00 | 0.00 | 0.00 | 72 | 1008.5 |
| 20260506122537 | 19 | 168 | 3.2 | 20.9 | 0.00 | 0.00 | 0.00 | 72 | 1008.6 |
| 20260506122053 | 19 | 166 | 0.0 | 20.9 | 0.00 | 0.00 | 0.00 | 73 | 1008.7 |
| 20260506121506 | 18 | 161 | 1.6 | 22.5 | 0.00 | 0.00 | 0.00 | 74 | 1008.7 |
| 20260506121022 | 18 | 134 | 3.2 | 16.1 | 0.00 | 0.00 | 0.00 | 74 | 1008.7 |
| 20260506120538 | 18 | 146 | 0.0 | 8.0 | 0.00 | 0.00 | 0.00 | 75 | 1008.7 |
| 20260506120109 | 18 | 187 | 0.0 | 16.1 | 0.00 | 0.00 | 0.00 | 75 | 1008.7 |
| 20260506115555 | 18 | 146 | 1.6 | 16.1 | 0.00 | 0.00 | 0.00 | 75 | 1008.8 |
| 20260506115056 | 18 | 107 | 0.0 | 12.9 | 0.00 | 0.00 | 0.00 | 76 | 1008.7 |
| 20260506114508 | 18 | 82 | 1.6 | 11.3 | 0.00 | 0.00 | 0.00 | 76 | 1008.7 |
| 20260506114022 | 18 | 159 | 1.6 | 14.5 | 0.00 | 0.00 | 0.00 | 76 | 1008.8 |
| 20260506113538 | 18 | 128 | 0.0 | 14.5 | 0.00 | 0.00 | 0.00 | 77 | 1008.7 |
| 20260506113054 | 18 | 157 | 1.6 | 16.1 | 0.00 | 0.00 | 0.00 | 77 | 1008.7 |
| 20260506112559 | 17 | 119 | 1.6 | 19.3 | 0.00 | 0.00 | 0.00 | 78 | 1008.7 |
| 20260506112007 | 17 | 115 | 0.0 | 19.3 | 0.00 | 0.00 | 0.00 | 78 | 1008.7 |
| 20260506111526 | 17 | 89 | 0.0 | 11.3 | 0.00 | 0.00 | 0.00 | 79 | 1008.8 |
| 20260506111041 | 17 | 125 | 0.0 | 11.3 | 0.00 | 0.00 | 0.00 | 79 | 1008.9 |
| 20260506110554 | 17 | 178 | 0.0 | 16.1 | 0.00 | 0.00 | 0.00 | 79 | 1008.8 |
| 20260506110008 | 17 | 106 | 1.6 | 16.1 | 0.00 | 0.00 | 0.00 | 79 | 1008.8 |
| 20260506105523 | 17 | 177 | 1.6 | 9.7 | 0.00 | 0.00 | 0.00 | 80 | 1008.8 |
| 20260506105039 | 17 | 115 | 1.6 | 8.0 | 0.00 | 0.00 | 0.00 | 80 | 1008.7 |
| 20260506104557 | 17 | 84 | 1.6 | 17.7 | 0.00 | 0.00 | 0.00 | 80 | 1008.7 |
| 20260506104057 | 17 | 115 | 1.6 | 17.7 | 0.00 | 0.00 | 0.00 | 80 | 1008.8 |
| 20260506103509 | 17 | 190 | 0.0 | 6.4 | 0.00 | 0.00 | 0.00 | 80 | 1008.8 |
| 20260506103023 | 17 | 124 | 0.0 | 9.7 | 0.00 | 0.00 | 0.00 | 80 | 1008.9 |
| 20260506102537 | 17 | 181 | 3.2 | 9.7 | 0.00 | 0.00 | 0.00 | 80 | 1008.9 |
| 20260506102052 | 17 | 157 | 0.0 | 9.7 | 0.00 | 0.00 | 0.00 | 81 | 1009.0 |
| 20260506101503 | 17 | 167 | 0.0 | 8.0 | 0.00 | 0.00 | 0.00 | 81 | 1008.8 |
| 20260506101008 | 17 | 91 | 0.0 | 8.0 | 0.00 | 0.00 | 0.00 | 81 | 1008.8 |
| 20260506100520 | 17 | 158 | 3.2 | 8.0 | 0.00 | 0.00 | 0.00 | 81 | 1008.8 |
| 20260506100039 | 17 | 200 | 0.0 | 4.8 | 0.00 | 0.00 | 0.00 | 81 | 1008.7 |
| 20260506095550 | 17 | 171 | 0.0 | 8.0 | 0.00 | 0.00 | 0.00 | 81 | 1008.7 |
| 20260506095002 | 17 | 162 | 1.6 | 8.0 | 0.00 | 0.00 | 0.00 | 81 | 1008.6 |
| 20260506094520 | 17 | 175 | 0.0 | 4.8 | 0.00 | 0.00 | 0.00 | 81 | 1008.6 |
| 20260506094039 | 17 | 85 | 0.0 | 4.8 | 0.00 | 0.00 | 0.00 | 81 | 1008.6 |
| 20260506093550 | 17 | 152 | 0.0 | 9.7 | 0.00 | 0.00 | 0.00 | 81 | 1008.6 |
| 20260506093006 | 17 | 125 | 1.6 | 11.3 | 0.00 | 0.00 | 0.00 | 81 | 1008.5 |
| 20260506092503 | 17 | 156 | 1.6 | 12.9 | 0.00 | 0.00 | 0.00 | 81 | 1008.4 |
| 20260506092019 | 17 | 108 | 3.2 | 12.9 | 0.00 | 0.00 | 0.00 | 82 | 1008.5 |
| 20260506091534 | 17 | 134 | 0.0 | 9.7 | 0.00 | 0.00 | 0.00 | 82 | 1008.6 |
| 20260506091050 | 17 | 77 | 1.6 | 11.3 | 0.00 | 0.00 | 0.00 | 82 | 1008.7 |
| 20260506090503 | 17 | 122 | 3.2 | 11.3 | 0.00 | 0.00 | 0.00 | 82 | 1008.7 |
| 20260506090020 | 17 | 156 | 0.0 | 9.7 | 0.00 | 0.00 | 0.00 | 82 | 1008.8 |
| 20260506085537 | 17 | 99 | 1.6 | 9.7 | 0.00 | 0.00 | 0.00 | 82 | 1008.7 |
| 20260506085053 | 17 | 102 | 0.0 | 9.7 | 0.00 | 0.00 | 0.00 | 82 | 1008.8 |
| 20260506084511 | 17 | 100 | 0.0 | 9.7 | 0.00 | 0.00 | 0.00 | 82 | 1008.8 |
| 20260506084007 | 17 | 82 | 0.0 | 8.0 | 0.00 | 0.00 | 0.00 | 82 | 1008.9 |
| 20260506083523 | 17 | 148 | 0.0 | 4.8 | 0.00 | 0.00 | 0.00 | 82 | 1008.9 |
| 20260506083041 | 17 | 150 | 0.0 | 6.4 | 0.00 | 0.00 | 0.00 | 82 | 1008.9 |
| 20260506082559 | 17 | 138 | 0.0 | 6.4 | 0.00 | 0.00 | 0.00 | 82 | 1009.0 |
| 20260506082012 | 17 | 125 | 0.0 | 6.4 | 0.00 | 0.00 | 0.00 | 82 | 1009.0 |
| 20260506081525 | 17 | 108 | 0.0 | 6.4 | 0.00 | 0.00 | 0.00 | 82 | 1009.0 |
| 20260506081040 | 17 | 143 | 0.0 | 6.4 | 0.00 | 0.00 | 0.00 | 82 | 1009.0 |
| 20260506080558 | 17 | 76 | 0.0 | 4.8 | 0.00 | 0.00 | 0.00 | 82 | 1009.0 |
| 20260506073507 | 17 | 122 | 0.0 | 9.7 | 0.00 | 0.00 | 0.00 | 81 | 1008.8 |
| 20260506073019 | 17 | 186 | 1.6 | 11.3 | 0.00 | 0.00 | 0.00 | 81 | 1008.9 |
| 20260506072535 | 17 | 171 | 1.6 | 11.3 | 0.00 | 0.00 | 0.00 | 81 | 1008.9 |
| 20260506072054 | 17 | 83 | 0.0 | 9.7 | 0.00 | 0.00 | 0.00 | 81 | 1008.9 |
| 20260506071506 | 17 | 119 | 0.0 | 9.7 | 0.00 | 0.00 | 0.00 | 81 | 1009.0 |
| 20260506071003 | 17 | 140 | 0.0 | 6.4 | 0.00 | 0.00 | 0.00 | 81 | 1009.0 |
| 20260506070519 | 17 | 86 | 0.0 | 6.4 | 0.00 | 0.00 | 0.00 | 81 | 1009.1 |
| 20260506062011 | 18 | 86 | 0.0 | 1.6 | 0.00 | 0.00 | 0.00 | 80 | 1009.1 |
| 20260506061524 | 18 | 90 | 0.0 | 4.8 | 0.00 | 0.00 | 0.00 | 79 | 1009.1 |
| 20260506061041 | 18 | 93 | 0.0 | 14.5 | 0.00 | 0.00 | 0.00 | 79 | 1009.1 |
| 20260506060557 | 18 | 107 | 0.0 | 14.5 | 0.00 | 0.00 | 0.00 | 79 | 1009.1 |
| 20260506051102 | 18 | 140 | 1.6 | 12.9 | 0.00 | 0.00 | 0.00 | 77 | 1009.5 |
| 20260506050603 | 18 | 136 | 0.0 | 4.8 | 0.00 | 0.00 | 0.00 | 77 | 1009.6 |
| 20260506045050 | 19 | 162 | 0.0 | 9.7 | 0.00 | 0.00 | 0.00 | 76 | 1009.6 |
| 20260506044556 | 19 | 82 | 1.6 | 9.7 | 0.00 | 0.00 | 0.00 | 76 | 1009.7 |
| 20260506044051 | 19 | 134 | 3.2 | 9.7 | 0.00 | 0.00 | 0.00 | 76 | 1009.6 |
| 20260506043503 | 19 | 123 | 0.0 | 6.4 | 0.00 | 0.00 | 0.00 | 76 | 1009.7 |
| 20260506043018 | 19 | 177 | 0.0 | 6.4 | 0.00 | 0.00 | 0.00 | 75 | 1009.7 |
| 20260506042535 | 19 | 131 | 0.0 | 12.9 | 0.00 | 0.00 | 0.00 | 75 | 1009.7 |
| 20260506042037 | 19 | 104 | 0.0 | 11.3 | 0.00 | 0.00 | 0.00 | 75 | 1009.5 |
| 20260506041605 | 19 | 102 | 3.2 | 11.3 | 0.00 | 0.00 | 0.00 | 75 | 1009.6 |
| 20260506041054 | 19 | 128 | 0.0 | 12.9 | 0.00 | 0.00 | 0.00 | 75 | 1009.6 |
| 20260506040506 | 19 | 190 | 1.6 | 12.9 | 0.00 | 0.00 | 0.00 | 75 | 1009.5 |
| 20260506040021 | 19 | 177 | 0.0 | 9.7 | 0.00 | 0.00 | 0.00 | 75 | 1009.4 |
| 20260506035537 | 19 | 79 | 1.6 | 12.9 | 0.00 | 0.00 | 0.00 | 74 | 1009.4 |
| 20260506035053 | 19 | 151 | 1.6 | 25.7 | 0.00 | 0.00 | 0.00 | 74 | 1009.5 |
| 20260506034507 | 19 | 126 | 0.0 | 11.3 | 0.00 | 0.00 | 0.00 | 74 | 1009.5 |
| 20260506034023 | 19 | 148 | 3.2 | 17.7 | 0.00 | 0.00 | 0.00 | 74 | 1009.5 |
| 20260506033539 | 19 | 126 | 4.8 | 17.7 | 0.00 | 0.00 | 0.00 | 74 | 1009.6 |
| 20260506033056 | 19 | 124 | 0.0 | 9.7 | 0.00 | 0.00 | 0.00 | 73 | 1009.5 |
| 20260506032556 | 19 | 130 | 0.0 | 12.9 | 0.00 | 0.00 | 0.00 | 73 | 1009.6 |
| 20260506032056 | 19 | 154 | 4.8 | 12.9 | 0.00 | 0.00 | 0.00 | 73 | 1009.7 |
| 20260506031509 | 20 | 162 | 0.0 | 20.9 | 0.00 | 0.00 | 0.00 | 73 | 1009.7 |
| 20260506031025 | 20 | 145 | 0.0 | 20.9 | 0.00 | 0.00 | 0.00 | 72 | 1009.7 |
| 20260506030543 | 20 | 89 | 0.0 | 19.3 | 0.00 | 0.00 | 0.00 | 72 | 1009.8 |
| 20260506030042 | 20 | 112 | 0.0 | 14.5 | 0.00 | 0.00 | 0.00 | 72 | 1009.7 |
| 20260506025559 | 20 | 135 | 0.0 | 12.9 | 0.00 | 0.00 | 0.00 | 71 | 1009.7 |
| 20260506025101 | 20 | 192 | 3.2 | 12.9 | 0.00 | 0.00 | 0.00 | 71 | 1009.6 |
| 20260506024613 | 20 | 158 | 0.0 | 11.3 | 0.00 | 0.00 | 0.00 | 71 | 1009.7 |
| 20260506024015 | 20 | 120 | 1.6 | 11.3 | 0.00 | 0.00 | 0.00 | 70 | 1009.7 |
| 20260506023533 | 20 | 115 | 3.2 | 17.7 | 0.00 | 0.00 | 0.00 | 70 | 1009.7 |
| 20260506023053 | 20 | 115 | 1.6 | 8.0 | 0.00 | 0.00 | 0.00 | 69 | 1009.8 |
| 20260506022546 | 20 | 167 | 0.0 | 11.3 | 0.00 | 0.00 | 0.00 | 69 | 1009.7 |
| 20260506022048 | 20 | 98 | 0.0 | 17.7 | 0.00 | 0.00 | 0.00 | 68 | 1009.7 |
| 20260506021502 | 20 | 166 | 4.8 | 17.7 | 0.00 | 0.00 | 0.00 | 68 | 1009.7 |
| 20260506021017 | 20 | 96 | 1.6 | 11.3 | 0.00 | 0.00 | 0.00 | 67 | 1009.7 |
| 20260506020534 | 20 | 98 | 1.6 | 11.3 | 0.00 | 0.00 | 0.00 | 67 | 1009.6 |
| 20260506020116 | 20 | 153 | 3.2 | 9.7 | 0.00 | 0.00 | 0.00 | 66 | 1009.8 |
| 20260506015502 | 21 | 125 | 0.0 | 20.9 | 0.00 | 0.00 | 0.00 | 66 | 1009.6 |
| 20260506015005 | 21 | 101 | 0.0 | 17.7 | 0.00 | 0.00 | 0.00 | 65 | 1009.5 |
| 20260506014507 | 21 | 118 | 0.0 | 17.7 | 0.00 | 0.00 | 0.00 | 64 | 1009.6 |
| 20260506014020 | 21 | 114 | 1.6 | 9.7 | 0.00 | 0.00 | 0.00 | 64 | 1009.4 |
| 20260506013534 | 21 | 130 | 0.0 | 11.3 | 0.00 | 0.00 | 0.00 | 63 | 1009.4 |
| 20260506013050 | 21 | 97 | 0.0 | 11.3 | 0.00 | 0.00 | 0.00 | 63 | 1009.4 |
| 20260506012504 | 21 | 133 | 1.6 | 11.3 | 0.00 | 0.00 | 0.00 | 63 | 1009.3 |
| 20260506012021 | 21 | 147 | 0.0 | 11.3 | 0.00 | 0.00 | 0.00 | 62 | 1009.3 |
| 20260506011539 | 21 | 127 | 0.0 | 4.8 | 0.00 | 0.00 | 0.00 | 62 | 1009.2 |
| 20260506011055 | 21 | 104 | 0.0 | 9.7 | 0.00 | 0.00 | 0.00 | 62 | 1009.2 |
| 20260506010553 | 21 | 76 | 1.6 | 9.7 | 0.00 | 0.00 | 0.00 | 62 | 1009.1 |
| 20260506010057 | 21 | 124 | 1.6 | 9.7 | 0.00 | 0.00 | 0.00 | 62 | 1009.1 |
| 20260506005512 | 21 | 121 | 0.0 | 9.7 | 0.00 | 0.00 | 0.00 | 62 | 1009.1 |
| 20260506005024 | 21 | 107 | 0.0 | 6.4 | 0.00 | 0.00 | 0.00 | 62 | 1009.1 |
| 20260506004543 | 21 | 69 | 0.0 | 6.4 | 0.00 | 0.00 | 0.00 | 62 | 1009.0 |
| 20260506004041 | 21 | 106 | 0.0 | 11.3 | 0.00 | 0.00 | 0.00 | 62 | 1008.9 |
| 20260506003558 | 21 | 123 | 1.6 | 11.3 | 0.00 | 0.00 | 0.00 | 62 | 1008.8 |
| 20260506003059 | 21 | 130 | 0.0 | 9.7 | 0.00 | 0.00 | 0.00 | 62 | 1008.8 |
| 20260506002512 | 22 | 92 | 0.0 | 17.7 | 0.00 | 0.00 | 0.00 | 62 | 1008.8 |
| 20260506002030 | 22 | 88 | 0.0 | 17.7 | 0.00 | 0.00 | 0.00 | 61 | 1008.8 |
| 20260506001556 | 22 | 90 | 0.0 | 6.4 | 0.00 | 0.00 | 0.00 | 61 | 1008.8 |
| 20260506001103 | 22 | 102 | 0.0 | 14.5 | 0.00 | 0.00 | 0.00 | 61 | 1008.8 |
| 20260506000516 | 22 | 148 | 1.6 | 16.1 | 0.00 | 0.00 | 0.00 | 60 | 1008.7 |
| 20260506000050 | 22 | 124 | 1.6 | 25.7 | 0.00 | 0.00 | 0.00 | 59 | 1008.7 |
| 20260505235547 | 22 | 175 | 3.2 | 25.7 | 0.00 | 0.00 | 0.00 | 59 | 1008.6 |
| 20260505235104 | 22 | 116 | 1.6 | 9.7 | 0.00 | 0.00 | 0.00 | 58 | 1008.7 |
| 20260505234502 | 23 | 100 | 0.0 | 16.1 | 0.00 | 0.00 | 0.00 | 57 | 1008.6 |
| 20260505234001 | 23 | 120 | 0.0 | 14.5 | 0.00 | 0.00 | 0.00 | 56 | 1008.6 |
| 20260505233518 | 23 | 89 | 0.0 | 3.2 | 0.00 | 0.00 | 0.00 | 55 | 1008.4 |
| 20260505233033 | 23 | 118 | 0.0 | 6.4 | 0.00 | 0.00 | 0.00 | 54 | 1008.3 |
| 20260505232549 | 23 | 107 | 1.6 | 9.7 | 0.00 | 0.00 | 0.00 | 53 | 1008.2 |
| 20260505232104 | 23 | 84 | 0.0 | 22.5 | 0.00 | 0.00 | 0.00 | 52 | 1008.2 |
| 20260505231516 | 24 | 134 | 1.6 | 22.5 | 0.00 | 0.00 | 0.00 | 51 | 1008.2 |
| 20260505231033 | 24 | 111 | 1.6 | 19.3 | 0.00 | 0.00 | 0.00 | 50 | 1008.1 |
| 20260505230549 | 25 | 100 | 1.6 | 14.5 | 0.00 | 0.00 | 0.00 | 49 | 1008.0 |
| 20260505230001 | 25 | 118 | 1.6 | 22.5 | 0.00 | 0.00 | 0.00 | 47 | 1008.0 |
| 20260505225502 | 25 | 88 | 4.8 | 20.9 | 0.00 | 0.00 | 0.00 | 46 | 1008.1 |
| 20260505225020 | 26 | 96 | 0.0 | 20.9 | 0.00 | 0.00 | 0.00 | 45 | 1007.9 |
| 20260505224543 | 26 | 146 | 1.6 | 17.7 | 0.00 | 0.00 | 0.00 | 44 | 1007.9 |
| 20260505224052 | 26 | 172 | 6.4 | 19.3 | 0.00 | 0.00 | 0.00 | 42 | 1007.9 |
| 20260505223503 | 26 | 178 | 3.2 | 20.9 | 0.00 | 0.00 | 0.00 | 42 | 1007.8 |
| 20260505223018 | 26 | 165 | 4.8 | 24.1 | 0.00 | 0.00 | 0.00 | 41 | 1007.9 |
| 20260505222537 | 26 | 132 | 6.4 | 30.6 | 0.00 | 0.00 | 0.00 | 41 | 1007.8 |
| 20260505222052 | 26 | 96 | 6.4 | 33.8 | 0.00 | 0.00 | 0.00 | 41 | 1007.8 |
| 20260505221558 | 26 | 68 | 1.6 | 33.8 | 0.00 | 0.00 | 0.00 | 42 | 1007.6 |
| 20260505221053 | 26 | 107 | 6.4 | 37.0 | 0.00 | 0.00 | 0.00 | 42 | 1007.7 |
| 20260505220506 | 27 | 148 | 6.4 | 37.0 | 0.00 | 0.00 | 0.00 | 41 | 1007.9 |
| 20260505220023 | 27 | 138 | 6.4 | 35.4 | 0.00 | 0.00 | 0.00 | 41 | 1007.7 |
| 20260505215538 | 27 | 198 | 6.4 | 35.4 | 0.00 | 0.00 | 0.00 | 40 | 1007.6 |
| 20260505215039 | 27 | 141 | 11.3 | 37.0 | 0.00 | 0.00 | 0.00 | 40 | 1007.6 |
| 20260505214605 | 27 | 132 | 4.8 | 35.4 | 0.00 | 0.00 | 0.00 | 41 | 1007.5 |
| 20260505214056 | 27 | 169 | 3.2 | 35.4 | 0.00 | 0.00 | 0.00 | 40 | 1007.5 |
| 20260505213505 | 27 | 157 | 6.4 | 27.4 | 0.00 | 0.00 | 0.00 | 39 | 1007.4 |
| 20260505213027 | 27 | 108 | 4.8 | 20.9 | 0.00 | 0.00 | 0.00 | 38 | 1007.5 |
| 20260505212540 | 27 | 143 | 6.4 | 19.3 | 0.00 | 0.00 | 0.00 | 38 | 1007.5 |
| 20260505212057 | 27 | 156 | 4.8 | 35.4 | 0.00 | 0.00 | 0.00 | 39 | 1007.4 |
| 20260505211631 | 27 | 153 | 6.4 | 35.4 | 0.00 | 0.00 | 0.00 | 39 | 1007.3 |
| 20260505211101 | 27 | 132 | 6.4 | 22.5 | 0.00 | 0.00 | 0.00 | 39 | 1007.2 |
| 20260505210559 | 27 | 185 | 4.8 | 27.4 | 0.00 | 0.00 | 0.00 | 38 | 1007.1 |
| 20260505210013 | 27 | 132 | 8.0 | 37.0 | 0.00 | 0.00 | 0.00 | 38 | 1007.1 |
| 20260505205531 | 27 | 190 | 4.8 | 27.4 | 0.00 | 0.00 | 0.00 | 38 | 1007.0 |
| 20260505205045 | 27 | 182 | 6.4 | 27.4 | 0.00 | 0.00 | 0.00 | 38 | 1007.0 |
| 20260505204610 | 27 | 175 | 6.4 | 38.6 | 0.00 | 0.00 | 0.00 | 39 | 1007.0 |
| 20260505204100 | 27 | 182 | 6.4 | 38.6 | 0.00 | 0.00 | 0.00 | 38 | 1007.1 |
| 20260505203603 | 28 | 149 | 3.2 | 40.2 | 0.00 | 0.00 | 0.00 | 38 | 1007.0 |
| 20260505203102 | 28 | 156 | 8.0 | 40.2 | 0.00 | 0.00 | 0.00 | 38 | 1007.0 |
| 20260505202516 | 28 | 117 | 3.2 | 35.4 | 0.00 | 0.00 | 0.00 | 39 | 1007.0 |
| 20260505202033 | 27 | 214 | 9.7 | 35.4 | 0.00 | 0.00 | 0.00 | 40 | 1007.1 |
| 20260505201548 | 27 | 106 | 8.0 | 24.1 | 0.00 | 0.00 | 0.00 | 38 | 1007.1 |
| 20260505201002 | 27 | 98 | 6.4 | 45.1 | 0.00 | 0.00 | 0.00 | 39 | 1007.2 |
| 20260505200502 | 28 | 103 | 6.4 | 29.0 | 0.00 | 0.00 | 0.00 | 39 | 1007.1 |
| 20260505200017 | 28 | 138 | 9.7 | 29.0 | 0.00 | 0.00 | 0.00 | 39 | 1007.2 |
| 20260505195532 | 28 | 77 | 4.8 | 35.4 | 0.00 | 0.00 | 0.00 | 40 | 1007.1 |
| 20260505195052 | 27 | 145 | 9.7 | 35.4 | 0.00 | 0.00 | 0.00 | 40 | 1007.2 |
| 20260505194503 | 27 | 130 | 8.0 | 29.0 | 0.00 | 0.00 | 0.00 | 40 | 1007.3 |
| 20260505194021 | 28 | 161 | 12.9 | 30.6 | 0.00 | 0.00 | 0.00 | 39 | 1007.4 |
| 20260505193534 | 28 | 119 | 6.4 | 22.5 | 0.00 | 0.00 | 0.00 | 41 | 1007.5 |
| 20260505193049 | 28 | 185 | 4.8 | 32.2 | 0.00 | 0.00 | 0.00 | 40 | 1007.4 |
| 20260505192554 | 28 | 138 | 3.2 | 32.2 | 0.00 | 0.00 | 0.00 | 42 | 1007.4 |
| 20260505192053 | 27 | 142 | 8.0 | 29.0 | 0.00 | 0.00 | 0.00 | 39 | 1007.5 |
| 20260505191506 | 27 | 115 | 6.4 | 30.6 | 0.00 | 0.00 | 0.00 | 41 | 1007.6 |
| 20260505191019 | 27 | 125 | 4.8 | 35.4 | 0.00 | 0.00 | 0.00 | 41 | 1007.6 |
| 20260505190536 | 28 | 246 | 6.4 | 35.4 | 0.00 | 0.00 | 0.00 | 42 | 1007.7 |
| 20260505190055 | 27 | 84 | 4.8 | 35.4 | 0.00 | 0.00 | 0.00 | 41 | 1007.8 |
| 20260505185503 | 27 | 109 | 4.8 | 40.2 | 0.00 | 0.00 | 0.00 | 42 | 1007.8 |
| 20260505185004 | 27 | 129 | 9.7 | 38.6 | 0.00 | 0.00 | 0.00 | 41 | 1008.1 |
| 20260505184502 | 27 | 202 | 9.7 | 37.0 | 0.00 | 0.00 | 0.00 | 40 | 1008.1 |
| 20260505184020 | 27 | 179 | 3.2 | 29.0 | 0.00 | 0.00 | 0.00 | 42 | 1008.1 |
| 20260505183534 | 28 | 183 | 6.4 | 29.0 | 0.00 | 0.00 | 0.00 | 41 | 1008.3 |